Location: *
(43.6428°N, 11.5461°E)
Time: 09:02:50
(UTC+00:00)

Cosmos 1833 Rocket - Pass Details

Date: 21 October 2019
Orbit: 833 x 839 km, 71.0° (Epoch: 11 November)

Event Time Altitude Azimuth Distance (km) Brightness Sun altitude
Rises 17:27:09 0° 335° (NNW) 3,391 6.1 -12.6°
Reaches altitude 10° 17:29:36 10° 337° (NNW) 2,454 5.4 -13.0°
Maximum altitude 17:35:15 79° 64° (ENE) 855 2.6 -14.0°
Drops below altitude 10° 17:40:52 10° 152° (SSE) 2,442 4.8 -15.1°
Sets 17:43:18 0° 154° (SSE) 3,373 5.6 -15.5°
